<?xml version="1.0"?>
<gpx xmlns="http://www.topografix.com/GPX/1/1" xmlns:xsi="http://www.w3.org/2001/XMLSchema-instance" version="1.1" creator="GPX RubyGem 1.0.0 -- http://dougfales.github.io/gpx/" xsi:schemaLocation="http://www.topografix.com/GPX/1/1 http://www.topografix.com/GPX/1/1/gpx.xsd">
  <metadata>
    <name/>
    <time>2026-05-07T05:16:21+00:00</time>
    <bound minlat="90.0" minlon="180.0" maxlat="-90.0" maxlon="-180.0"/>
  </metadata>
  <trk>
    <name/>
    <trkseg>
      <trkpt lat="46.921191" lon="11.95006">
        <time>1970-01-01T00:00:00+00:00</time>
        <ele>894.0</ele>
      </trkpt>
      <trkpt lat="46.92157" lon="11.94958">
        <time>1970-01-01T00:00:00+00:00</time>
        <ele>895.0</ele>
      </trkpt>
      <trkpt lat="46.921652" lon="11.949472">
        <time>1970-01-01T00:00:00+00:00</time>
        <ele>896.0</ele>
      </trkpt>
      <trkpt lat="46.921613" lon="11.949394">
        <time>1970-01-01T00:00:00+00:00</time>
        <ele>899.0</ele>
      </trkpt>
      <trkpt lat="46.921694" lon="11.948984">
        <time>1970-01-01T00:00:00+00:00</time>
        <ele>908.0</ele>
      </trkpt>
      <trkpt lat="46.921739" lon="11.948705">
        <time>1970-01-01T00:00:00+00:00</time>
        <ele>915.0</ele>
      </trkpt>
      <trkpt lat="46.921803" lon="11.948489">
        <time>1970-01-01T00:00:00+00:00</time>
        <ele>922.0</ele>
      </trkpt>
      <trkpt lat="46.921908" lon="11.948273">
        <time>1970-01-01T00:00:00+00:00</time>
        <ele>927.0</ele>
      </trkpt>
      <trkpt lat="46.922418" lon="11.947424">
        <time>1970-01-01T00:00:00+00:00</time>
        <ele>931.0</ele>
      </trkpt>
      <trkpt lat="46.922532" lon="11.947159">
        <time>1970-01-01T00:00:00+00:00</time>
        <ele>933.0</ele>
      </trkpt>
      <trkpt lat="46.922648" lon="11.946659">
        <time>1970-01-01T00:00:00+00:00</time>
        <ele>939.0</ele>
      </trkpt>
      <trkpt lat="46.922828" lon="11.946295">
        <time>1970-01-01T00:00:00+00:00</time>
        <ele>946.0</ele>
      </trkpt>
      <trkpt lat="46.922976" lon="11.946103">
        <time>1970-01-01T00:00:00+00:00</time>
        <ele>946.0</ele>
      </trkpt>
      <trkpt lat="46.923386" lon="11.945935">
        <time>1970-01-01T00:00:00+00:00</time>
        <ele>942.0</ele>
      </trkpt>
      <trkpt lat="46.923683" lon="11.945713">
        <time>1970-01-01T00:00:00+00:00</time>
        <ele>950.0</ele>
      </trkpt>
      <trkpt lat="46.923773" lon="11.945683">
        <time>1970-01-01T00:00:00+00:00</time>
        <ele>950.0</ele>
      </trkpt>
      <trkpt lat="46.924034" lon="11.945701">
        <time>1970-01-01T00:00:00+00:00</time>
        <ele>943.0</ele>
      </trkpt>
      <trkpt lat="46.924429" lon="11.945768">
        <time>1970-01-01T00:00:00+00:00</time>
        <ele>932.0</ele>
      </trkpt>
      <trkpt lat="46.924514" lon="11.945807">
        <time>1970-01-01T00:00:00+00:00</time>
        <ele>930.0</ele>
      </trkpt>
      <trkpt lat="46.924644" lon="11.945765">
        <time>1970-01-01T00:00:00+00:00</time>
        <ele>930.0</ele>
      </trkpt>
      <trkpt lat="46.924772" lon="11.945664">
        <time>1970-01-01T00:00:00+00:00</time>
        <ele>931.0</ele>
      </trkpt>
      <trkpt lat="46.924869" lon="11.945555">
        <time>1970-01-01T00:00:00+00:00</time>
        <ele>933.0</ele>
      </trkpt>
      <trkpt lat="46.924952" lon="11.945413">
        <time>1970-01-01T00:00:00+00:00</time>
        <ele>935.0</ele>
      </trkpt>
      <trkpt lat="46.925034" lon="11.945262">
        <time>1970-01-01T00:00:00+00:00</time>
        <ele>936.0</ele>
      </trkpt>
      <trkpt lat="46.925267" lon="11.944699">
        <time>1970-01-01T00:00:00+00:00</time>
        <ele>944.0</ele>
      </trkpt>
      <trkpt lat="46.925525" lon="11.944219">
        <time>1970-01-01T00:00:00+00:00</time>
        <ele>948.0</ele>
      </trkpt>
      <trkpt lat="46.925758" lon="11.943839">
        <time>1970-01-01T00:00:00+00:00</time>
        <ele>952.0</ele>
      </trkpt>
      <trkpt lat="46.925758" lon="11.943839">
        <time>1970-01-01T00:00:00+00:00</time>
        <ele>952.0</ele>
      </trkpt>
      <trkpt lat="46.925525" lon="11.944219">
        <time>1970-01-01T00:00:00+00:00</time>
        <ele>948.0</ele>
      </trkpt>
      <trkpt lat="46.925267" lon="11.944699">
        <time>1970-01-01T00:00:00+00:00</time>
        <ele>944.0</ele>
      </trkpt>
      <trkpt lat="46.925034" lon="11.945262">
        <time>1970-01-01T00:00:00+00:00</time>
        <ele>936.0</ele>
      </trkpt>
      <trkpt lat="46.924952" lon="11.945413">
        <time>1970-01-01T00:00:00+00:00</time>
        <ele>935.0</ele>
      </trkpt>
      <trkpt lat="46.924869" lon="11.945555">
        <time>1970-01-01T00:00:00+00:00</time>
        <ele>933.0</ele>
      </trkpt>
      <trkpt lat="46.924772" lon="11.945664">
        <time>1970-01-01T00:00:00+00:00</time>
        <ele>931.0</ele>
      </trkpt>
      <trkpt lat="46.924644" lon="11.945765">
        <time>1970-01-01T00:00:00+00:00</time>
        <ele>930.0</ele>
      </trkpt>
      <trkpt lat="46.924514" lon="11.945807">
        <time>1970-01-01T00:00:00+00:00</time>
        <ele>930.0</ele>
      </trkpt>
      <trkpt lat="46.924429" lon="11.945768">
        <time>1970-01-01T00:00:00+00:00</time>
        <ele>932.0</ele>
      </trkpt>
      <trkpt lat="46.924359" lon="11.945809">
        <time>1970-01-01T00:00:00+00:00</time>
        <ele>932.0</ele>
      </trkpt>
      <trkpt lat="46.924382" lon="11.945866">
        <time>1970-01-01T00:00:00+00:00</time>
        <ele>929.0</ele>
      </trkpt>
      <trkpt lat="46.924438" lon="11.945932">
        <time>1970-01-01T00:00:00+00:00</time>
        <ele>927.0</ele>
      </trkpt>
      <trkpt lat="46.924443" lon="11.946">
        <time>1970-01-01T00:00:00+00:00</time>
        <ele>926.0</ele>
      </trkpt>
      <trkpt lat="46.924436" lon="11.946198">
        <time>1970-01-01T00:00:00+00:00</time>
        <ele>922.0</ele>
      </trkpt>
      <trkpt lat="46.924433" lon="11.946333">
        <time>1970-01-01T00:00:00+00:00</time>
        <ele>923.0</ele>
      </trkpt>
      <trkpt lat="46.923305" lon="11.9463">
        <time>1970-01-01T00:00:00+00:00</time>
        <ele>926.0</ele>
      </trkpt>
      <trkpt lat="46.923184" lon="11.946334">
        <time>1970-01-01T00:00:00+00:00</time>
        <ele>927.0</ele>
      </trkpt>
      <trkpt lat="46.923043" lon="11.946449">
        <time>1970-01-01T00:00:00+00:00</time>
        <ele>926.0</ele>
      </trkpt>
      <trkpt lat="46.922928" lon="11.946616">
        <time>1970-01-01T00:00:00+00:00</time>
        <ele>924.0</ele>
      </trkpt>
      <trkpt lat="46.92288" lon="11.946723">
        <time>1970-01-01T00:00:00+00:00</time>
        <ele>922.0</ele>
      </trkpt>
      <trkpt lat="46.922655" lon="11.947436">
        <time>1970-01-01T00:00:00+00:00</time>
        <ele>922.0</ele>
      </trkpt>
      <trkpt lat="46.92227" lon="11.948249">
        <time>1970-01-01T00:00:00+00:00</time>
        <ele>916.0</ele>
      </trkpt>
      <trkpt lat="46.922074" lon="11.948862">
        <time>1970-01-01T00:00:00+00:00</time>
        <ele>901.0</ele>
      </trkpt>
      <trkpt lat="46.921965" lon="11.949093">
        <time>1970-01-01T00:00:00+00:00</time>
        <ele>899.0</ele>
      </trkpt>
      <trkpt lat="46.921878" lon="11.949209">
        <time>1970-01-01T00:00:00+00:00</time>
        <ele>899.0</ele>
      </trkpt>
      <trkpt lat="46.921699" lon="11.949414">
        <time>1970-01-01T00:00:00+00:00</time>
        <ele>897.0</ele>
      </trkpt>
      <trkpt lat="46.921652" lon="11.949472">
        <time>1970-01-01T00:00:00+00:00</time>
        <ele>896.0</ele>
      </trkpt>
      <trkpt lat="46.92157" lon="11.94958">
        <time>1970-01-01T00:00:00+00:00</time>
        <ele>895.0</ele>
      </trkpt>
      <trkpt lat="46.921191" lon="11.95006">
        <time>1970-01-01T00:00:00+00:00</time>
        <ele>894.0</ele>
      </trkpt>
    </trkseg>
  </trk>
</gpx>
